User: anonymous   Login
Location: Unspecified
(0.0000°N, 0.0000°E)
Time: 22:27:37
(UTC+00:00)
Language:

STARLINK-33896 - Orbit

View from above orbital plane
View from above orbital plane
View from above satellite
View from above satellite

Ground track
Ground track

The orbit is defined by the following mean orbital elements,

1 63861U          26145.01611419 +.00000000 +00000-0 +55517-3 0 00004
2 63861  43.0032   6.9748 0001415 265.9370  94.1320 15.27588586    09
Epoch (UTC): 25 May 2026 00:23:12
Eccentricity: 0.0001415
inclination: 43.0032°
perigee height: 482 km
apogee height: 484 km
right ascension of ascending node: 6.9748°
argument of perigee: 265.9370°
revolutions per day: 15.27588586
mean anomaly at epoch: 94.1320°

The dashed part of the orbit path shows where the satellite is in the earth's shadow,  

DLR